sat.trackr.live / text

‹ back to catalog

STARLINK-4428

NORAD 53672 · 2022-105AA

PAYLOAD ACTIVE UNKNOWN

§ Identity

Operator
Country
US
Launch date
2022-08-31
Launch site
AFWTR
Launch vehicle
Mass (kg)
RCS (m²)

Purposes: comms

External: N2YO · Heavens-Above · Gunter

§ Orbital elements

Epoch: 2026-09-20T23:04:33.924864Z

Period
95.64 min
Inclination
97.2837°
Eccentricity
0.0002111
Mean motion
15.05650636 rev/d
Perigee alt
548.0 km
Apogee alt
551.0 km
Semi-major
6,927.6 km
B*
8.9223e-8
RAAN
137.7341°
Arg perigee
80.5038°
Mean anomaly
279.6428°
Rev number
22,261

§ Raw data

STARLINK-44281 53672U 22105AA  26263.96150376 -.00000055  00000+0  89223-7 0  99902 53672  97.2837 137.7341 0002111  80.5038 279.6428 15.05650636222614

JSON: /api/v1/satellites/53672 · /tle

For live sub-satellite position, see the globe view (requires WebGL).

§ Visibility from observer

Set your observer location to see the next 7 days of passes ≥ 10°. The values pass through the URL so the page stays shareable.

No JS? Fill the form by hand. The geolocation button needs JavaScript.